ONEWEB-0367 (49293 NORAD) Tracking and Keplerian Element Data

This shows tracking and keplerian element data for the satellite.

Feedback or suggestion? Click here.




ElementValue
Catalog49293
NameONEWEB-0367
Epoch Orbit356
Epoch Day339.91667824
Epoch Year2021
RAAN275.0298
Inclination87.2086
Eccentricity0.0009118
Argument of Perigee83.197
Mean Anonmoly96.2327
Mean Motion14.91002278
Decay Rate-0.00123103
L11 49293U 21090Q 21339.91667824 -.00123103 00000+0 -12687-1 0 9996
L22 49293 87.2086 275.0298 0009118 83.1970 96.2327 14.91002278 3567

Live tracking and technical data element details for ONEWEB-0367 (NORAD 49293). ONEWEB-0367 can be tracked NOW for your location showing map with azimuth and elevation plus other details from your city location.

Track the satellite on the map from your city or location and see movement details for azimuth, elevation, latitude, longitude, range, height, and movement on the map or in text.







IsCatalogInMostPopularTable: catalog: 49293, numindb: 5
Update: records affected: 1



GetName: 49293 ONEWEB-0367

Hit Count: updated at: Mon, 06 Dec 2021 14:05:03 GMT